"Pseudo-MPEC" for P10QBZo

Created 2019 Aug 14 12:07:10 UT using Find_Orb

Click here for an explanation of pseudo-MPECs

 
 Astrometry: 
     P10QBZo  C2019 08 11cWAstrometryi4pLLu1j[8-/;'vdC:FapXid-yJ^redacted;'(+F51
     P10QBZo  C2019 08 12RTWM@1=!IKde,`O)UOjKbZiIY9aPui[Mx8TILsrw^7]x@gSpWX27F51
     P10QBZo  C2019 08 13G[K;BUjf6qd(K\QQ/#NmofF5Sy_d2qVY,[NO6oLiYToo_F$OL1;rF51
     P10QBZo  C2019 08 13!nK`2]2hqrIEG9pe-Osx2I#)xO:m!o;LVM0B[:?Yx2x,Lb:^eqA=F51
     P10QBZo  C2019 08 1360!click+KN;S87IsRhSH!R48*E@p`]qvHr[MFw8here4)1@LeBMF51
     P10QBZo KC2019 08 14qW'/a-c`)1fA(iwp!tQmcZ%],D4;7;$R#gm)q$I8,e[`b+;7\/TqH21
     P10QBZo KC2019 08 14h7Wfqk[.a_aLTGw2pir5$XQfor0NBF7P=YhOE9@ZH[?cyEqFw)pfH21
     P10QBZo KC2019 08 14!_k37Ua3!xdsW,HVEBexplanation6G$/0#/'$,dNr?h=SYr:lNmH21

Station data:
(F51) Pan-STARRS 1, Haleakala  (N20.707235 W156.255910)  US/Hawaii.
   Observers N. Primak, A. Schultz, S. Watters, J. Thiel, T. Goggia. Measurer
   PS1 Science Consortium. 1.8-m Ritchey-Chrétien + CCD.
(H21) Astronomical Research Observatory, Westfield  (N39.483057 W87.968270)
   US/Illinois. 0.76-m f/3.0 astrograph + CCD.

Orbital elements:  P10QBZo
   Perihelion 2019 Nov 3.404109 +/- 0.39 TT =  9:41:55 (JD 2458790.904109)
Epoch 2019 Aug 14.0 TT = JDT 2458709.5   Earth MOID: 0.0359   AutoNEOCP
M 287.79802971 +/- 0.6              (J2000 ecliptic)
n   0.88695731 +/- 0.00365          Peri.  186.12771 +/- 0.56
a   1.07283821 +/- 0.00294          Node   234.94615 +/- 0.36
e   0.2157599 +/- 0.00347           Incl.    2.08945 +/- 0.034
P   1.11/405.87d           H 23.9   G  0.15   U  9.0  
q 0.84136266 +/- 0.00143    Q 1.30431376 +/- 0.00731
From 8 observations 2019 Aug. 11-14; mean residual 0".11
Residuals in arcseconds: 
190811 F51  .09+  .11-    190813 F51  .14-  .04+    190814 H21  .14+  .08+    
190812 F51  .09-  .15+    190813 F51  .05-  .16-    190814 H21  .08-  .06-    
190813 F51  .01+  .21+    190814 H21  .07+  .12-    

Ephemerides (geocentric):
Date (UTC) HH   RA              Dec         delta   r     elong  mag " sig PA
---- -- -- --  -------------   -----------  ------ ------ -----  --- ---- ---
2019 08 14 12  00 32 07.694   +35 08 12.78  .07918 1.0489 114.9 20.7 .331 143
2019 08 14 13  00 32 31.316   +35 13 01.67  .07908 1.0487 114.8 20.7 .352 149
2019 08 14 14  00 32 55.037   +35 17 50.93  .07898 1.0486 114.8 20.7 .377 155
2019 08 14 15  00 33 18.860   +35 22 40.55  .07888 1.0484 114.7 20.7 .406 160
2019 08 14 16  00 33 42.783   +35 27 30.54  .07878 1.0483 114.6 20.7 .438 164
2019 08 14 17  00 34 06.807   +35 32 20.88  .07868 1.0481 114.5 20.7 .472 168
2019 08 14 18  00 34 30.934   +35 37 11.58  .07859 1.0479 114.4 20.7 .510 172
2019 08 14 19  00 34 55.163   +35 42 02.64  .07849 1.0478 114.4 20.7 .550 175
2019 08 14 20  00 35 19.496   +35 46 54.05  .07839 1.0476 114.3 20.7 .593 178
2019 08 14 21  00 35 43.932   +35 51 45.80  .07829 1.0475 114.2 20.7 .638   0
2019 08 14 22  00 36 08.473   +35 56 37.90  .07819 1.0473 114.1 20.7 .685   3
2019 08 14 23  00 36 33.119   +36 01 30.33  .07810 1.0472 114.0 20.7 .735   5
2019 08 15 00  00 36 57.870   +36 06 23.11  .07800 1.0470 114.0 20.7 .786   7
2019 08 15 01  00 37 22.727   +36 11 16.22  .07790 1.0469 113.9 20.7 .840   9
2019 08 15 02  00 37 47.691   +36 16 09.66  .07781 1.0467 113.8 20.7 .895  10
2019 08 15 03  00 38 12.762   +36 21 03.43  .07771 1.0466 113.7 20.7 .952  12
2019 08 15 04  00 38 37.941   +36 25 57.52  .07762 1.0464 113.6 20.7 1.01  13
2019 08 15 05  00 39 03.229   +36 30 51.93  .07752 1.0463 113.5 20.7 1.07  14
2019 08 15 06  00 39 28.625   +36 35 46.66  .07743 1.0461 113.5 20.7 1.14  16
2019 08 15 07  00 39 54.131   +36 40 41.71  .07733 1.0460 113.4 20.7 1.20  17
2019 08 15 08  00 40 19.747   +36 45 37.06  .07724 1.0458 113.3 20.7 1.27  18
2019 08 15 09  00 40 45.474   +36 50 32.71  .07714 1.0457 113.2 20.7 1.33  19
2019 08 15 10  00 41 11.312   +36 55 28.67  .07705 1.0455 113.1 20.7 1.40  20
2019 08 15 11  00 41 37.262   +37 00 24.93  .07696 1.0454 113.0 20.7 1.48  20
2019 08 15 12  00 42 03.325   +37 05 21.48  .07687 1.0452 112.9 20.7 1.55  21
2019 08 15 13  00 42 29.501   +37 10 18.32  .07677 1.0451 112.9 20.7 1.63  22
2019 08 15 14  00 42 55.791   +37 15 15.45  .07668 1.0449 112.8 20.7 1.70  23
2019 08 15 15  00 43 22.195   +37 20 12.86  .07659 1.0448 112.7 20.7 1.78  23
2019 08 15 16  00 43 48.714   +37 25 10.54  .07650 1.0446 112.6 20.7 1.86  24
2019 08 15 17  00 44 15.349   +37 30 08.50  .07641 1.0444 112.5 20.7 1.95  25
2019 08 15 18  00 44 42.100   +37 35 06.73  .07631 1.0443 112.4 20.7 2.03  25
2019 08 15 19  00 45 08.968   +37 40 05.22  .07622 1.0441 112.3 20.7 2.12  26
2019 08 15 20  00 45 35.953   +37 45 03.98  .07613 1.0440 112.2 20.7 2.20  26
2019 08 15 21  00 46 03.057   +37 50 02.99  .07604 1.0438 112.2 20.7 2.29  27
2019 08 15 22  00 46 30.279   +37 55 02.24  .07595 1.0437 112.1 20.7 2.39  27
2019 08 15 23  00 46 57.621   +38 00 01.75  .07586 1.0435 112.0 20.7 2.48  28
2019 08 16 00  00 47 25.082   +38 05 01.50  .07578 1.0434 111.9 20.7 2.57  28
2019 08 16 01  00 47 52.665   +38 10 01.49  .07569 1.0432 111.8 20.7 2.67  29
2019 08 16 02  00 48 20.368   +38 15 01.70  .07560 1.0431 111.7 20.7 2.77  29
2019 08 16 03  00 48 48.194   +38 20 02.15  .07551 1.0429 111.6 20.7 2.87  30
2019 08 16 04  00 49 16.142   +38 25 02.82  .07542 1.0428 111.5 20.7 2.98  30
2019 08 16 05  00 49 44.214   +38 30 03.70  .07533 1.0426 111.4 20.7 3.08  30
2019 08 16 06  00 50 12.409   +38 35 04.80  .07525 1.0425 111.4 20.7 3.19  31
2019 08 16 07  00 50 40.729   +38 40 06.11  .07516 1.0423 111.3 20.7 3.30  31
2019 08 16 08  00 51 09.174   +38 45 07.62  .07507 1.0422 111.2 20.7 3.41  32
2019 08 16 09  00 51 37.744   +38 50 09.32  .07499 1.0420 111.1 20.7 3.52  32
2019 08 16 10  00 52 06.442   +38 55 11.22  .07490 1.0419 111.0 20.7 3.63  32
2019 08 16 11  00 52 35.266   +39 00 13.30  .07482 1.0417 110.9 20.7 3.75  33